Location: Friedrichshafen
(47.6598°N, 9.4819°E)
Time: 06:44:10
(UTC+01:00)

Envisat - Visible Passes

Search period start: 24 November 2017 00:00
Search period end: 04 December 2017 00:00
Orbit: 764 x 766 km, 98.2° (Epoch: 23 November)

Date Brightness Start Highest point End Pass type
(mag) Time Alt. Az. Time Alt. Az. Time Alt. Az.
24 Nov 5.6 20:04:59 11° NNW 20:04:59 11° NNW 20:05:09 10° NNW visible
25 Nov 5.3 19:27:55 12° N 19:27:55 12° N 19:28:16 10° N visible
26 Nov 5.3 18:50:50 11° N 18:50:50 11° N 18:51:00 10° N visible
27 Nov 5.6 19:53:58 10° N 19:53:58 10° N 19:54:01 10° N visible
28 Nov 5.4 19:16:53 11° N 19:16:53 11° N 19:17:01 10° N visible
